Year,Month,Day,Hour,Minute,Value (Times are PST for windspeed in km/hr)
2004,10,06,00,00,0.00
2004,10,06,00,01,0.00
2004,10,06,00,02,0.00
2004,10,06,00,03,0.00
2004,10,06,00,04,0.00
2004,10,06,00,05,0.00
2004,10,06,00,06,0.00
2004,10,06,00,07,0.00
2004,10,06,00,08,0.00
2004,10,06,00,09,0.30
2004,10,06,00,10,0.30
2004,10,06,00,11,0.60
2004,10,06,00,12,0.40
2004,10,06,00,13,0.00
2004,10,06,00,14,0.10
2004,10,06,00,15,0.00
2004,10,06,00,16,0.00
2004,10,06,00,17,0.60
2004,10,06,00,18,0.60
2004,10,06,00,19,0.30
2004,10,06,00,20,0.00
2004,10,06,00,21,0.00
2004,10,06,00,22,0.00
2004,10,06,00,23,0.10
2004,10,06,00,24,0.00
2004,10,06,00,25,0.00
2004,10,06,00,26,0.00
2004,10,06,00,27,0.00
2004,10,06,00,28,0.00
2004,10,06,00,29,0.00
2004,10,06,00,30,0.00
2004,10,06,00,31,0.00
2004,10,06,00,32,0.00
2004,10,06,00,33,0.00
2004,10,06,00,34,0.00
2004,10,06,00,35,0.00
2004,10,06,00,36,0.00
2004,10,06,00,37,0.00
2004,10,06,00,38,0.00
2004,10,06,00,39,0.80
2004,10,06,00,40,0.30
2004,10,06,00,41,0.00
2004,10,06,00,42,0.10
2004,10,06,00,43,0.00
2004,10,06,00,44,0.00
2004,10,06,00,45,0.00
2004,10,06,00,46,0.00
2004,10,06,00,47,0.00
2004,10,06,00,48,0.00
2004,10,06,00,49,0.10
2004,10,06,00,50,0.00
2004,10,06,00,51,0.00
2004,10,06,00,52,0.00
2004,10,06,00,53,0.00
2004,10,06,00,54,0.00
2004,10,06,00,55,0.00
2004,10,06,00,56,0.30
2004,10,06,00,57,0.60
2004,10,06,00,58,0.00
2004,10,06,00,59,0.00
2004,10,06,01,00,0.00
2004,10,06,01,01,0.00
2004,10,06,01,02,0.00
2004,10,06,01,03,0.00
2004,10,06,01,04,0.00
2004,10,06,01,05,0.10
2004,10,06,01,06,0.00
2004,10,06,01,07,0.00
2004,10,06,01,08,0.60
2004,10,06,01,09,0.30
2004,10,06,01,10,0.00
2004,10,06,01,11,0.00
2004,10,06,01,12,0.00
2004,10,06,01,13,0.00
2004,10,06,01,14,0.00
2004,10,06,01,15,0.00
2004,10,06,01,16,0.00
2004,10,06,01,17,0.00
2004,10,06,01,18,0.00
2004,10,06,01,19,0.00
2004,10,06,01,20,0.00
2004,10,06,01,21,0.00
2004,10,06,01,22,0.00
2004,10,06,01,23,0.00
2004,10,06,01,24,0.00
2004,10,06,01,25,0.00
2004,10,06,01,26,0.00
2004,10,06,01,27,0.00
2004,10,06,01,28,0.00
2004,10,06,01,29,0.00
2004,10,06,01,30,0.30
2004,10,06,01,31,0.80
2004,10,06,01,32,0.00
2004,10,06,01,33,0.00
2004,10,06,01,34,0.00
2004,10,06,01,35,0.10
2004,10,06,01,36,0.30
2004,10,06,01,37,0.00
2004,10,06,01,38,0.00
2004,10,06,01,39,0.00
2004,10,06,01,40,0.30
2004,10,06,01,41,0.70
2004,10,06,01,42,0.00
2004,10,06,01,43,0.00
2004,10,06,01,44,0.00
2004,10,06,01,45,0.00
2004,10,06,01,46,0.00
2004,10,06,01,47,0.00
2004,10,06,01,48,0.00
2004,10,06,01,49,0.00
2004,10,06,01,50,0.00
2004,10,06,01,51,0.00
2004,10,06,01,52,0.00
2004,10,06,01,53,0.00
2004,10,06,01,54,0.00
2004,10,06,01,55,0.00
2004,10,06,01,56,0.00
2004,10,06,01,57,0.80
2004,10,06,01,58,1.00
2004,10,06,01,59,1.00
2004,10,06,02,00,0.50
2004,10,06,02,01,1.40
2004,10,06,02,02,0.10
2004,10,06,02,03,0.00
2004,10,06,02,04,0.80
2004,10,06,02,05,0.60
2004,10,06,02,06,1.30
2004,10,06,02,07,0.20
2004,10,06,02,08,1.10
2004,10,06,02,09,0.40
2004,10,06,02,10,0.10
2004,10,06,02,11,0.60
2004,10,06,02,12,0.10
2004,10,06,02,13,0.00
2004,10,06,02,14,0.00
2004,10,06,02,15,0.00
2004,10,06,02,16,0.00
2004,10,06,02,17,0.00
2004,10,06,02,18,0.00
2004,10,06,02,19,0.00
2004,10,06,02,20,0.00
2004,10,06,02,21,0.00
2004,10,06,02,22,0.00
2004,10,06,02,23,0.00
2004,10,06,02,24,0.10
2004,10,06,02,25,0.00
2004,10,06,02,26,0.00
2004,10,06,02,27,0.00
2004,10,06,02,28,0.50
2004,10,06,02,29,0.10
2004,10,06,02,30,0.80
2004,10,06,02,31,0.30
2004,10,06,02,32,0.00
2004,10,06,02,33,0.00
2004,10,06,02,34,0.00
2004,10,06,02,35,0.00
2004,10,06,02,36,0.00
2004,10,06,02,37,0.00
2004,10,06,02,38,0.00
2004,10,06,02,39,0.00
2004,10,06,02,40,0.00
2004,10,06,02,41,0.00
2004,10,06,02,42,0.00
2004,10,06,02,43,0.00
2004,10,06,02,44,0.00
2004,10,06,02,45,0.00
2004,10,06,02,46,0.40
2004,10,06,02,47,1.10
2004,10,06,02,48,1.30
2004,10,06,02,49,0.80
2004,10,06,02,50,0.90
2004,10,06,02,51,0.80
2004,10,06,02,52,0.80
2004,10,06,02,53,0.50
2004,10,06,02,54,0.10
2004,10,06,02,55,0.10
2004,10,06,02,56,0.30
2004,10,06,02,57,1.10
2004,10,06,02,58,1.60
2004,10,06,02,59,0.80
2004,10,06,03,00,1.20
2004,10,06,03,01,0.50
2004,10,06,03,02,0.00
2004,10,06,03,03,0.10
2004,10,06,03,04,0.80
2004,10,06,03,05,0.10
2004,10,06,03,06,0.00
2004,10,06,03,07,0.60
2004,10,06,03,08,0.60
2004,10,06,03,09,0.50
2004,10,06,03,10,0.60
2004,10,06,03,11,0.00
2004,10,06,03,12,0.00
2004,10,06,03,13,0.00
2004,10,06,03,14,0.10
2004,10,06,03,15,0.00
2004,10,06,03,16,0.00
2004,10,06,03,17,0.00
2004,10,06,03,18,0.00
2004,10,06,03,19,0.00
2004,10,06,03,20,0.00
2004,10,06,03,21,0.00
2004,10,06,03,22,0.30
2004,10,06,03,23,0.70
2004,10,06,03,24,1.50
2004,10,06,03,25,0.60
2004,10,06,03,26,2.50
2004,10,06,03,27,2.60
2004,10,06,03,28,3.80
2004,10,06,03,29,2.50
2004,10,06,03,30,2.60
2004,10,06,03,31,2.60
2004,10,06,03,32,1.60
2004,10,06,03,33,2.70
2004,10,06,03,34,1.60
2004,10,06,03,35,2.80
2004,10,06,03,36,1.30
2004,10,06,03,37,1.00
2004,10,06,03,38,2.80
2004,10,06,03,39,0.80
2004,10,06,03,40,3.70
2004,10,06,03,41,3.50
2004,10,06,03,42,0.50
2004,10,06,03,43,0.70
2004,10,06,03,44,0.80
2004,10,06,03,45,1.20
2004,10,06,03,46,0.90
2004,10,06,03,47,0.40
2004,10,06,03,48,0.00
2004,10,06,03,49,0.00
2004,10,06,03,50,0.00
2004,10,06,03,51,0.20
2004,10,06,03,52,0.00
2004,10,06,03,53,0.00
2004,10,06,03,54,0.00
2004,10,06,03,55,0.00
2004,10,06,03,56,0.00
2004,10,06,03,57,0.00
2004,10,06,03,58,0.40
2004,10,06,03,59,1.20
2004,10,06,04,00,0.80
2004,10,06,04,01,0.00
2004,10,06,04,02,0.00
2004,10,06,04,03,0.00
2004,10,06,04,04,0.00
2004,10,06,04,05,0.00
2004,10,06,04,06,0.00
2004,10,06,04,07,0.00
2004,10,06,04,08,0.60
2004,10,06,04,09,1.30
2004,10,06,04,10,1.30
2004,10,06,04,11,3.20
2004,10,06,04,12,2.70
2004,10,06,04,13,2.40
2004,10,06,04,14,2.30
2004,10,06,04,15,0.80
2004,10,06,04,16,0.40
2004,10,06,04,17,0.80
2004,10,06,04,18,5.70
2004,10,06,04,19,1.80
2004,10,06,04,20,1.20
2004,10,06,04,21,3.10
2004,10,06,04,22,2.60
2004,10,06,04,23,7.90
2004,10,06,04,24,3.10
2004,10,06,04,25,2.10
2004,10,06,04,26,0.90
2004,10,06,04,27,2.70
2004,10,06,04,28,5.30
2004,10,06,04,29,5.00
2004,10,06,04,30,2.10
2004,10,06,04,31,5.90
2004,10,06,04,32,2.60
2004,10,06,04,33,1.70
2004,10,06,04,34,0.20
2004,10,06,04,35,1.70
2004,10,06,04,36,1.90
2004,10,06,04,37,2.70
2004,10,06,04,38,6.20
2004,10,06,04,39,5.10
2004,10,06,04,40,5.10
2004,10,06,04,41,6.60
2004,10,06,04,42,3.50
2004,10,06,04,43,6.00
2004,10,06,04,44,4.50
2004,10,06,04,45,4.20
2004,10,06,04,46,5.80
2004,10,06,04,47,2.40
2004,10,06,04,48,3.50
2004,10,06,04,49,5.80
2004,10,06,04,50,2.70
2004,10,06,04,51,2.70
2004,10,06,04,52,2.10
2004,10,06,04,53,3.10
2004,10,06,04,54,6.40
2004,10,06,04,55,6.00
2004,10,06,04,56,4.70
2004,10,06,04,57,4.60
2004,10,06,04,58,3.20
2004,10,06,04,59,5.50
2004,10,06,05,00,1.80
2004,10,06,05,01,3.90
2004,10,06,05,02,5.40
2004,10,06,05,03,6.30
2004,10,06,05,04,6.80
2004,10,06,05,05,4.50
2004,10,06,05,06,5.40
2004,10,06,05,07,3.70
2004,10,06,05,08,4.20
2004,10,06,05,09,4.40
2004,10,06,05,10,2.90
2004,10,06,05,11,3.70
2004,10,06,05,12,6.30
2004,10,06,05,13,6.00
2004,10,06,05,14,5.30
2004,10,06,05,15,4.70
2004,10,06,05,16,11.40
2004,10,06,05,17,8.70
2004,10,06,05,18,9.70
2004,10,06,05,19,7.70
2004,10,06,05,20,8.40
2004,10,06,05,21,9.30
2004,10,06,05,22,6.90
2004,10,06,05,23,10.30
2004,10,06,05,24,9.60
2004,10,06,05,25,9.10
2004,10,06,05,26,8.70
2004,10,06,05,27,10.90
2004,10,06,05,28,9.20
2004,10,06,05,29,13.00
2004,10,06,05,30,7.70
2004,10,06,05,31,10.70
2004,10,06,05,32,13.20
2004,10,06,05,33,10.90
2004,10,06,05,34,9.20
2004,10,06,05,35,11.30
2004,10,06,05,36,11.40
2004,10,06,05,37,10.80
2004,10,06,05,38,11.10
2004,10,06,05,39,9.30
2004,10,06,05,40,6.00
2004,10,06,05,41,5.30
2004,10,06,05,42,10.10
2004,10,06,05,43,11.00
2004,10,06,05,44,10.20
2004,10,06,05,45,9.40
2004,10,06,05,46,10.10
2004,10,06,05,47,9.80
2004,10,06,05,48,10.00
2004,10,06,05,49,9.20
2004,10,06,05,50,10.20
2004,10,06,05,51,12.00
2004,10,06,05,52,10.30
2004,10,06,05,53,11.70
2004,10,06,05,54,12.20
2004,10,06,05,55,11.80
2004,10,06,05,56,10.10
2004,10,06,05,57,9.10
2004,10,06,05,58,9.50
2004,10,06,05,59,10.70
2004,10,06,06,00,12.00
2004,10,06,06,01,9.10
2004,10,06,06,02,8.40
2004,10,06,06,03,7.70
2004,10,06,06,04,9.50
2004,10,06,06,05,11.10
2004,10,06,06,06,6.70
2004,10,06,06,07,7.80
2004,10,06,06,08,8.60
2004,10,06,06,09,8.00
2004,10,06,06,10,7.50
2004,10,06,06,11,9.10
2004,10,06,06,12,6.40
2004,10,06,06,13,9.00
2004,10,06,06,14,8.70
2004,10,06,06,15,9.30
2004,10,06,06,16,8.70
2004,10,06,06,17,5.70
2004,10,06,06,18,9.10
2004,10,06,06,19,9.00
2004,10,06,06,20,9.90
2004,10,06,06,21,9.70
2004,10,06,06,22,7.20
2004,10,06,06,23,6.80
2004,10,06,06,24,7.70
2004,10,06,06,25,9.10
2004,10,06,06,26,8.90
2004,10,06,06,27,7.70
2004,10,06,06,28,7.70
2004,10,06,06,29,11.90
2004,10,06,06,30,11.30
2004,10,06,06,31,9.00
2004,10,06,06,32,9.00
2004,10,06,06,33,11.50
2004,10,06,06,34,10.30
2004,10,06,06,35,9.00
2004,10,06,06,36,9.80
2004,10,06,06,37,9.00
2004,10,06,06,38,7.60
2004,10,06,06,39,9.50
2004,10,06,06,40,7.90
2004,10,06,06,41,7.60
2004,10,06,06,42,6.50
2004,10,06,06,43,7.70
2004,10,06,06,44,9.00
2004,10,06,06,45,8.30
2004,10,06,06,46,5.90
2004,10,06,06,47,7.70
2004,10,06,06,48,7.40
2004,10,06,06,49,7.80
2004,10,06,06,50,5.80
2004,10,06,06,51,6.90
2004,10,06,06,52,8.00
2004,10,06,06,53,7.60
2004,10,06,06,54,6.90
2004,10,06,06,55,8.00
2004,10,06,06,56,6.20
2004,10,06,06,57,5.00
2004,10,06,06,58,5.20
2004,10,06,06,59,7.80
2004,10,06,07,00,4.50
2004,10,06,07,01,5.90
2004,10,06,07,02,5.80
2004,10,06,07,03,5.10
2004,10,06,07,04,4.80
2004,10,06,07,05,5.50
2004,10,06,07,06,5.70
2004,10,06,07,07,10.20
2004,10,06,07,08,9.40
2004,10,06,07,09,7.90
2004,10,06,07,10,9.60
2004,10,06,07,11,9.60
2004,10,06,07,12,9.50
2004,10,06,07,13,10.20
2004,10,06,07,14,10.50
2004,10,06,07,15,9.90
2004,10,06,07,16,9.60
2004,10,06,07,17,7.90
2004,10,06,07,18,9.10
2004,10,06,07,19,7.10
2004,10,06,07,20,9.30
2004,10,06,07,21,7.60
2004,10,06,07,22,7.60
2004,10,06,07,23,8.00
2004,10,06,07,24,9.00
2004,10,06,07,25,8.60
2004,10,06,07,26,8.50
2004,10,06,07,27,7.00
2004,10,06,07,28,6.20
2004,10,06,07,29,6.00
2004,10,06,07,30,6.80
2004,10,06,07,31,3.50
2004,10,06,07,32,5.30
2004,10,06,07,33,5.00
2004,10,06,07,34,3.30
2004,10,06,07,35,4.80
2004,10,06,07,36,2.60
2004,10,06,07,37,2.00
2004,10,06,07,38,1.50
2004,10,06,07,39,1.50
2004,10,06,07,40,0.90
2004,10,06,07,41,1.30
2004,10,06,07,42,2.40
2004,10,06,07,43,3.00
2004,10,06,07,44,1.60
2004,10,06,07,45,1.60
2004,10,06,07,46,1.00
2004,10,06,07,47,0.30
2004,10,06,07,48,1.60
2004,10,06,07,49,2.20
2004,10,06,07,50,2.20
2004,10,06,07,51,3.00
2004,10,06,07,52,6.60
2004,10,06,07,53,7.30
2004,10,06,07,54,8.30
2004,10,06,07,55,9.30
2004,10,06,07,56,9.30
2004,10,06,07,57,11.60
2004,10,06,07,58,10.80
2004,10,06,07,59,12.60
2004,10,06,08,00,12.00
2004,10,06,08,01,13.10
2004,10,06,08,02,10.90
2004,10,06,08,03,12.20
2004,10,06,08,04,12.10
2004,10,06,08,05,10.70
2004,10,06,08,06,11.30
2004,10,06,08,07,11.80
2004,10,06,08,08,11.70
2004,10,06,08,09,11.80
2004,10,06,08,10,13.40
2004,10,06,08,11,12.80
2004,10,06,08,12,10.40
2004,10,06,08,13,11.40
2004,10,06,08,14,13.00
2004,10,06,08,15,12.50
2004,10,06,08,16,10.30
2004,10,06,08,17,12.40
2004,10,06,08,18,12.70
2004,10,06,08,19,11.80
2004,10,06,08,20,12.70
2004,10,06,08,21,11.40
2004,10,06,08,22,11.50
2004,10,06,08,23,11.10
2004,10,06,08,24,12.30
2004,10,06,08,25,11.40
2004,10,06,08,26,13.20
2004,10,06,08,27,12.20
2004,10,06,08,28,11.70
2004,10,06,08,29,11.70
2004,10,06,08,30,13.20
2004,10,06,08,31,13.40
2004,10,06,08,32,13.70
2004,10,06,08,33,11.80
2004,10,06,08,34,11.60
2004,10,06,08,35,11.60
2004,10,06,08,36,13.40
2004,10,06,08,37,12.60
2004,10,06,08,38,11.10
2004,10,06,08,39,13.80
2004,10,06,08,40,13.20
2004,10,06,08,41,13.60
2004,10,06,08,42,12.90
2004,10,06,08,43,10.70
2004,10,06,08,44,14.50
2004,10,06,08,45,10.50
2004,10,06,08,46,11.60
2004,10,06,08,47,13.10
2004,10,06,08,48,11.00
2004,10,06,08,49,11.40
2004,10,06,08,50,12.70
2004,10,06,08,51,11.90
2004,10,06,08,52,8.60
2004,10,06,08,53,10.20
2004,10,06,08,54,10.20
2004,10,06,08,55,9.30
2004,10,06,08,56,10.20
2004,10,06,08,57,8.80
2004,10,06,08,58,10.10
2004,10,06,08,59,11.60
2004,10,06,09,00,12.00
2004,10,06,09,01,10.90
2004,10,06,09,02,10.40
2004,10,06,09,03,12.50
2004,10,06,09,04,12.90
2004,10,06,09,05,10.50
2004,10,06,09,06,13.80
2004,10,06,09,07,11.80
2004,10,06,09,08,10.70
2004,10,06,09,09,12.90
2004,10,06,09,10,10.40
2004,10,06,09,11,13.50
2004,10,06,09,12,11.40
2004,10,06,09,13,10.30
2004,10,06,09,14,13.70
2004,10,06,09,15,9.30
2004,10,06,09,16,11.30
2004,10,06,09,17,11.20
2004,10,06,09,18,11.30
2004,10,06,09,19,11.30
2004,10,06,09,20,12.60
2004,10,06,09,21,12.20
2004,10,06,09,22,12.40
2004,10,06,09,23,12.60
2004,10,06,09,24,13.30
2004,10,06,09,25,15.60
2004,10,06,09,26,11.10
2004,10,06,09,27,11.60
2004,10,06,09,28,10.80
2004,10,06,09,29,10.60
2004,10,06,09,30,9.30
2004,10,06,09,31,10.80
2004,10,06,09,32,9.80
2004,10,06,09,33,9.50
2004,10,06,09,34,9.70
2004,10,06,09,35,10.80
2004,10,06,09,36,11.20
2004,10,06,09,37,10.70
2004,10,06,09,38,10.10
2004,10,06,09,39,10.20
2004,10,06,09,40,11.40
2004,10,06,09,41,12.40
2004,10,06,09,42,11.10
2004,10,06,09,43,12.60
2004,10,06,09,44,15.30
2004,10,06,09,45,11.40
2004,10,06,09,46,10.40
2004,10,06,09,47,9.20
2004,10,06,09,48,11.80
2004,10,06,09,49,11.60
2004,10,06,09,50,9.60
2004,10,06,09,51,9.60
2004,10,06,09,52,8.20
2004,10,06,09,53,15.90
2004,10,06,09,54,10.90
2004,10,06,09,55,11.80
2004,10,06,09,56,9.10
2004,10,06,09,57,7.60
2004,10,06,09,58,8.00
2004,10,06,09,59,12.50
2004,10,06,10,00,12.90
2004,10,06,10,01,13.80
2004,10,06,10,02,11.60
2004,10,06,10,03,16.90
2004,10,06,10,04,10.00
2004,10,06,10,05,4.80
2004,10,06,10,06,5.30
2004,10,06,10,07,7.70
2004,10,06,10,08,8.60
2004,10,06,10,09,11.90
2004,10,06,10,10,10.40
2004,10,06,10,11,14.40
2004,10,06,10,12,9.30
2004,10,06,10,13,7.80
2004,10,06,10,14,7.50
2004,10,06,10,15,8.90
2004,10,06,10,16,12.50
2004,10,06,10,17,6.10
2004,10,06,10,18,8.30
2004,10,06,10,19,13.50
2004,10,06,10,20,16.10
2004,10,06,10,21,16.10
2004,10,06,10,22,12.10
2004,10,06,10,23,12.30
2004,10,06,10,24,8.40
2004,10,06,10,25,9.50
2004,10,06,10,26,12.40
2004,10,06,10,27,12.00
2004,10,06,10,28,13.70
2004,10,06,10,29,10.20
2004,10,06,10,30,9.30
2004,10,06,10,31,8.90
2004,10,06,10,32,9.20
2004,10,06,10,33,9.50
2004,10,06,10,34,12.10
2004,10,06,10,35,11.80
2004,10,06,10,36,12.30
2004,10,06,10,37,11.30
2004,10,06,10,38,11.40
2004,10,06,10,39,8.70
2004,10,06,10,40,7.30
2004,10,06,10,41,13.00
2004,10,06,10,42,13.30
2004,10,06,10,43,7.00
2004,10,06,10,44,11.40
2004,10,06,10,45,10.00
2004,10,06,10,46,8.60
2004,10,06,10,47,11.70
2004,10,06,10,48,12.20
2004,10,06,10,49,12.40
2004,10,06,10,50,17.50
2004,10,06,10,51,11.80
2004,10,06,10,52,7.20
2004,10,06,10,53,11.10
2004,10,06,10,54,8.70
2004,10,06,10,55,15.00
2004,10,06,10,56,13.80
2004,10,06,10,57,17.60
2004,10,06,10,58,15.10
2004,10,06,10,59,14.20
2004,10,06,11,00,18.50
2004,10,06,11,01,15.90
2004,10,06,11,02,16.20
2004,10,06,11,03,10.80
2004,10,06,11,04,13.40
2004,10,06,11,05,9.40
2004,10,06,11,06,9.40
2004,10,06,11,07,8.10
2004,10,06,11,08,9.00
2004,10,06,11,09,6.90
2004,10,06,11,10,7.60
2004,10,06,11,11,17.90
2004,10,06,11,12,10.10
2004,10,06,11,13,3.90
2004,10,06,11,14,11.30
2004,10,06,11,15,11.50
2004,10,06,11,16,17.50
2004,10,06,11,17,16.20
2004,10,06,11,18,15.80
2004,10,06,11,19,15.00
2004,10,06,11,20,9.30
2004,10,06,11,21,8.40
2004,10,06,11,22,7.50
2004,10,06,11,23,8.20
2004,10,06,11,24,7.00
2004,10,06,11,25,13.60
2004,10,06,11,26,10.10
2004,10,06,11,27,7.00
2004,10,06,11,28,6.00
2004,10,06,11,29,2.30
2004,10,06,11,30,3.90
2004,10,06,11,31,6.80
2004,10,06,11,32,2.90
2004,10,06,11,33,4.50
2004,10,06,11,34,8.40
2004,10,06,11,35,4.90
2004,10,06,11,36,10.60
2004,10,06,11,37,15.80
2004,10,06,11,38,10.70
2004,10,06,11,39,16.80
2004,10,06,11,40,11.30
2004,10,06,11,41,11.30
2004,10,06,11,42,11.30
2004,10,06,11,43,11.30
2004,10,06,11,44,11.30
2004,10,06,11,45,8.70
2004,10,06,11,46,12.50
2004,10,06,11,47,12.50
2004,10,06,11,48,7.40
2004,10,06,11,49,10.80
2004,10,06,11,50,7.20
2004,10,06,11,51,8.30
2004,10,06,11,52,5.10
2004,10,06,11,53,3.50
2004,10,06,11,54,7.20
2004,10,06,11,55,5.00
2004,10,06,11,56,9.10
2004,10,06,11,57,6.80
2004,10,06,11,58,3.20
2004,10,06,11,59,5.90
2004,10,06,12,00,3.00
2004,10,06,12,01,10.30
2004,10,06,12,02,10.50
2004,10,06,12,03,3.30
2004,10,06,12,04,5.00
2004,10,06,12,05,4.00
2004,10,06,12,06,3.20
2004,10,06,12,07,7.50
2004,10,06,12,08,4.00
2004,10,06,12,09,5.10
2004,10,06,12,10,13.60
2004,10,06,12,11,14.60
2004,10,06,12,12,5.60
2004,10,06,12,13,3.10
2004,10,06,12,14,6.80
2004,10,06,12,15,7.20
2004,10,06,12,16,8.90
2004,10,06,12,17,7.80
2004,10,06,12,18,15.20
2004,10,06,12,19,11.00
2004,10,06,12,20,5.40
2004,10,06,12,21,7.70
2004,10,06,12,22,8.20
2004,10,06,12,23,14.00
2004,10,06,12,24,11.80
2004,10,06,12,25,10.30
2004,10,06,12,26,8.00
2004,10,06,12,27,11.60
2004,10,06,12,28,9.40
2004,10,06,12,29,14.90
2004,10,06,12,30,15.90
2004,10,06,12,31,13.10
2004,10,06,12,32,16.40
2004,10,06,12,33,15.50
2004,10,06,12,34,12.30
2004,10,06,12,35,11.40
2004,10,06,12,36,19.70
2004,10,06,12,37,10.70
2004,10,06,12,38,13.00
2004,10,06,12,39,14.40
2004,10,06,12,40,4.50
2004,10,06,12,41,12.00
2004,10,06,12,42,12.70
2004,10,06,12,43,8.20
2004,10,06,12,44,5.70
2004,10,06,12,45,9.40
2004,10,06,12,46,10.20
2004,10,06,12,47,5.90
2004,10,06,12,48,2.60
2004,10,06,12,49,6.70
2004,10,06,12,50,6.60
2004,10,06,12,51,8.30
2004,10,06,12,52,3.00
2004,10,06,12,53,10.90
2004,10,06,12,54,9.20
2004,10,06,12,55,5.00
2004,10,06,12,56,6.30
2004,10,06,12,57,1.10
2004,10,06,12,58,8.40
2004,10,06,12,59,6.20
2004,10,06,13,00,3.10
2004,10,06,13,01,8.30
2004,10,06,13,02,6.50
2004,10,06,13,03,7.70
2004,10,06,13,04,5.20
2004,10,06,13,05,8.50
2004,10,06,13,06,3.30
2004,10,06,13,07,3.90
2004,10,06,13,08,7.40
2004,10,06,13,09,9.00
2004,10,06,13,10,10.50
2004,10,06,13,11,1.00
2004,10,06,13,12,2.30
2004,10,06,13,13,2.40
2004,10,06,13,14,8.40
2004,10,06,13,15,16.50
2004,10,06,13,16,14.50
2004,10,06,13,17,15.20
2004,10,06,13,18,17.20
2004,10,06,13,19,17.30
2004,10,06,13,20,16.90
2004,10,06,13,21,16.40
2004,10,06,13,22,14.90
2004,10,06,13,23,15.30
2004,10,06,13,24,10.70
2004,10,06,13,25,13.70
2004,10,06,13,26,12.20
2004,10,06,13,27,11.70
2004,10,06,13,28,14.40
2004,10,06,13,29,9.70
2004,10,06,13,30,11.50
2004,10,06,13,31,11.70
2004,10,06,13,32,12.10
2004,10,06,13,33,17.90
2004,10,06,13,34,12.90
2004,10,06,13,35,10.50
2004,10,06,13,36,12.00
2004,10,06,13,37,14.50
2004,10,06,13,38,11.10
2004,10,06,13,39,14.00
2004,10,06,13,40,12.70
2004,10,06,13,41,14.30
2004,10,06,13,42,11.80
2004,10,06,13,43,13.40
2004,10,06,13,44,11.30
2004,10,06,13,45,11.80
2004,10,06,13,46,9.30
2004,10,06,13,47,13.30
2004,10,06,13,48,13.50
2004,10,06,13,49,11.80
2004,10,06,13,50,17.40
2004,10,06,13,51,16.20
2004,10,06,13,52,19.60
2004,10,06,13,53,19.30
2004,10,06,13,54,14.50
2004,10,06,13,55,13.00
2004,10,06,13,56,10.50
2004,10,06,13,57,17.50
2004,10,06,13,58,12.00
2004,10,06,13,59,12.90
2004,10,06,14,00,12.90
2004,10,06,14,01,12.90
2004,10,06,14,02,12.90
2004,10,06,14,03,13.00
2004,10,06,14,04,17.60
2004,10,06,14,05,17.70
2004,10,06,14,06,20.40
2004,10,06,14,07,20.90
2004,10,06,14,08,20.90
2004,10,06,14,09,20.90
2004,10,06,14,10,20.90
2004,10,06,14,11,20.90
2004,10,06,14,12,14.30
2004,10,06,14,13,11.50
2004,10,06,14,14,8.90
2004,10,06,14,15,13.60
2004,10,06,14,16,12.50
2004,10,06,14,17,15.70
2004,10,06,14,18,17.00
2004,10,06,14,19,13.90
2004,10,06,14,20,14.60
2004,10,06,14,21,10.70
2004,10,06,14,22,12.70
2004,10,06,14,23,11.50
2004,10,06,14,24,12.90
2004,10,06,14,25,17.10
2004,10,06,14,26,12.50
2004,10,06,14,27,15.20
2004,10,06,14,28,21.40
2004,10,06,14,29,19.20
2004,10,06,14,30,14.40
2004,10,06,14,31,15.40
2004,10,06,14,32,19.10
2004,10,06,14,33,20.80
2004,10,06,14,34,13.50
2004,10,06,14,35,21.50
2004,10,06,14,36,17.50
2004,10,06,14,37,27.00
2004,10,06,14,38,22.10
2004,10,06,14,39,14.00
2004,10,06,14,40,13.70
2004,10,06,14,41,14.70
2004,10,06,14,42,12.00
2004,10,06,14,43,12.70
2004,10,06,14,44,14.40
2004,10,06,14,45,12.50
2004,10,06,14,46,12.70
2004,10,06,14,47,11.90
2004,10,06,14,48,18.60
2004,10,06,14,49,20.50
2004,10,06,14,50,15.90
2004,10,06,14,51,15.80
2004,10,06,14,52,15.20
2004,10,06,14,53,14.10
2004,10,06,14,54,17.30
2004,10,06,14,55,16.80
2004,10,06,14,56,14.40
2004,10,06,14,57,14.40
2004,10,06,14,58,13.00
2004,10,06,14,59,15.60
2004,10,06,15,00,9.70
2004,10,06,15,01,10.50
2004,10,06,15,02,12.80
2004,10,06,15,03,11.30
2004,10,06,15,04,12.40
2004,10,06,15,05,10.60
2004,10,06,15,06,10.50
2004,10,06,15,07,13.60
2004,10,06,15,08,11.50
2004,10,06,15,09,10.00
2004,10,06,15,10,16.90
2004,10,06,15,11,17.90
2004,10,06,15,12,13.40
2004,10,06,15,13,14.70
2004,10,06,15,14,10.70
2004,10,06,15,15,9.80
2004,10,06,15,16,10.80
2004,10,06,15,17,13.00
2004,10,06,15,18,8.90
2004,10,06,15,19,7.20
2004,10,06,15,20,10.00
2004,10,06,15,21,10.70
2004,10,06,15,22,9.10
2004,10,06,15,23,14.40
2004,10,06,15,24,11.80
2004,10,06,15,25,16.70
2004,10,06,15,26,13.10
2004,10,06,15,27,5.40
2004,10,06,15,28,4.30
2004,10,06,15,29,3.80
2004,10,06,15,30,3.30
2004,10,06,15,31,1.40
2004,10,06,15,32,8.80
2004,10,06,15,33,14.30
2004,10,06,15,34,10.90
2004,10,06,15,35,10.70
2004,10,06,15,36,18.90
2004,10,06,15,37,9.30
2004,10,06,15,38,12.00
2004,10,06,15,39,12.90
2004,10,06,15,40,12.90
2004,10,06,15,41,8.90
2004,10,06,15,42,4.10
2004,10,06,15,43,7.00
2004,10,06,15,44,0.90
2004,10,06,15,45,0.00
2004,10,06,15,46,0.10
2004,10,06,15,47,1.30
2004,10,06,15,48,9.90
2004,10,06,15,49,5.20
2004,10,06,15,50,1.90
2004,10,06,15,51,1.00
2004,10,06,15,52,0.80
2004,10,06,15,53,1.00
2004,10,06,15,54,1.50
2004,10,06,15,55,4.10
2004,10,06,15,56,3.50
2004,10,06,15,57,4.20
2004,10,06,15,58,4.70
2004,10,06,15,59,6.30
2004,10,06,16,00,10.60
2004,10,06,16,01,10.00
2004,10,06,16,02,10.50
2004,10,06,16,03,9.00
2004,10,06,16,04,7.30
2004,10,06,16,05,3.30
2004,10,06,16,06,4.00
2004,10,06,16,07,5.50
2004,10,06,16,08,5.00
2004,10,06,16,09,6.50
2004,10,06,16,10,3.30
2004,10,06,16,11,5.70
2004,10,06,16,12,4.80
2004,10,06,16,13,2.80
2004,10,06,16,14,5.00
2004,10,06,16,15,6.40
2004,10,06,16,16,6.30
2004,10,06,16,17,3.10
2004,10,06,16,18,4.50
2004,10,06,16,19,3.50
2004,10,06,16,20,1.70
2004,10,06,16,21,1.10
2004,10,06,16,22,1.30
2004,10,06,16,23,1.50
2004,10,06,16,24,4.20
2004,10,06,16,25,7.10
2004,10,06,16,26,5.90
2004,10,06,16,27,1.60
2004,10,06,16,28,2.50
2004,10,06,16,29,2.80
2004,10,06,16,30,3.40
2004,10,06,16,31,3.60
2004,10,06,16,32,1.80
2004,10,06,16,33,3.00
2004,10,06,16,34,0.50
2004,10,06,16,35,1.00
2004,10,06,16,36,0.80
2004,10,06,16,37,0.40
2004,10,06,16,38,2.10
2004,10,06,16,39,0.50
2004,10,06,16,40,0.10
2004,10,06,16,41,0.00
2004,10,06,16,42,0.50
2004,10,06,16,43,0.30
2004,10,06,16,44,0.00
2004,10,06,16,45,0.10
2004,10,06,16,46,0.10
2004,10,06,16,47,0.00
2004,10,06,16,48,0.00
2004,10,06,16,49,0.00
2004,10,06,16,50,0.10
2004,10,06,16,51,0.10
2004,10,06,16,52,0.00
2004,10,06,16,53,0.00
2004,10,06,16,54,0.00
2004,10,06,16,55,0.10
2004,10,06,16,56,0.60
2004,10,06,16,57,0.30
2004,10,06,16,58,3.10
2004,10,06,16,59,2.20
2004,10,06,17,00,1.00
2004,10,06,17,01,1.50
2004,10,06,17,02,1.50
2004,10,06,17,03,0.30
2004,10,06,17,04,0.60
2004,10,06,17,05,0.30
2004,10,06,17,06,0.00
2004,10,06,17,07,0.00
2004,10,06,17,08,1.50
2004,10,06,17,09,0.70
2004,10,06,17,10,0.60
2004,10,06,17,11,2.20
2004,10,06,17,12,0.70
2004,10,06,17,13,1.40
2004,10,06,17,14,1.60
2004,10,06,17,15,1.60
2004,10,06,17,16,1.60
2004,10,06,17,17,1.60
2004,10,06,17,18,1.60
2004,10,06,17,19,1.60
2004,10,06,17,20,3.10
2004,10,06,17,21,1.90
2004,10,06,17,22,1.80
2004,10,06,17,23,4.50
2004,10,06,17,24,5.40
2004,10,06,17,25,2.60
2004,10,06,17,26,1.10
2004,10,06,17,27,3.40
2004,10,06,17,28,3.50
2004,10,06,17,29,3.50
2004,10,06,17,30,3.00
2004,10,06,17,31,1.70
2004,10,06,17,32,1.80
2004,10,06,17,33,0.30
2004,10,06,17,34,0.40
2004,10,06,17,35,1.50
2004,10,06,17,36,0.30
2004,10,06,17,37,0.40
2004,10,06,17,38,2.20
2004,10,06,17,39,2.70
2004,10,06,17,40,0.80
2004,10,06,17,41,0.80
2004,10,06,17,42,0.00
2004,10,06,17,43,1.30
2004,10,06,17,44,0.80
2004,10,06,17,45,1.30
2004,10,06,17,46,1.00
2004,10,06,17,47,0.60
2004,10,06,17,48,0.40
2004,10,06,17,49,0.20
2004,10,06,17,50,0.30